KINEIS-3A

Last updated on Mon Sep 21 2026 00:02:54 GMT+0000 (Coordinated Universal Time)

1 61223U 24172D 26263.24603206 .00001134 00000+0 18711-3 0 9991 2 61223 98.0399 352.2068 0002970 128.0419 232.1057 14.72339957106763
UTC large
Height (km)
Speed (km/s)
/
Latitude / Longitude
Inclination (degrees)
Orbital Period (minutes)
Azimuth
Elevation
Range (km)
Doppler Factor

Next 0 passes for location: London (51.5072 / 0.1276)

No passes found over London.
KINEIS-3A